This demonstration page uses our WeatherBlox Daily Observations layout. Learn more.

Hourly Observations for January 4, 2016

Temp ( °F °C ) Dew Point ( °F °C ) Humidity (%) Winds ( mph kmh ) Pressure ( in mb ) Visibility ( mi km ) Precip ( " mm )
12:15 am 00:15 Clear 19 -7 18 -8 93 93 ESE 5 7 30.53 1034 10 16.0934 0 0
12:35 am 00:35 Clear 17 -8.3 15 -9.5 91 91 ESE 5 7 30.53 1034 10 16.0934 0 0
12:55 am 00:55 Clear 19 -7 17 -8.1 92 92 Calm 30.53 1034 10 16.0934 0 0
1:15 am 01:15 Clear 18 -7.6 16 -8.8 91 91 Calm 30.53 1034 10 16.0934 0 0
1:35 am 01:35 Clear 17 -8.1 15 -9.2 92 92 Calm 30.53 1034 10 16.0934 0 0
1:55 am 01:55 Clear 18 -7.6 17 -8.6 93 93 Calm 30.53 1034 10 16.0934 0 0
2:15 am 02:15 Clear 19 -7.5 17 -8.4 93 93 Calm 30.53 1034 10 16.0934 0 0
2:35 am 02:35 Clear 18 -7.7 17 -8.6 93 93 Calm 30.53 1034 10 16.0934 0 0
2:55 am 02:55 Clear 18 -7.6 17 -8.5 93 93 Calm 30.53 1034 10 16.0934 0 0
3:15 am 03:15 Clear 16 -9.1 14 -10.2 92 92 Calm 30.53 1034 7 11.26538 0 0
3:35 am 03:35 Clear 15 -9.7 12 -10.9 91 91 Calm 30.56 1035 10 16.0934 0 0
3:55 am 03:55 Clear 15 -9.6 13 -10.7 92 92 Calm 30.56 1035 10 16.0934 0 0
4:15 am 04:15 Clear 13 -10.5 11 -11.7 91 91 Calm 30.56 1035 10 16.0934 0 0
4:35 am 04:35 Clear 13 -10.6 11 -11.9 90 90 Calm 30.56 1035 10 16.0934 0 0
4:55 am 04:55 Clear 13 -10.5 11 -11.8 90 90 Calm 30.56 1035 10 16.0934 0 0
5:15 am 05:15 Clear 14 -9.8 12 -11 91 91 Calm 30.56 1035 10 16.0934 0 0
5:35 am 05:35 Clear 12 -11.3 9 -12.8 89 89 Calm 30.56 1035 10 16.0934 0 0
5:55 am 05:55 Clear 14 -10.2 11 -11.5 90 90 Calm 30.56 1035 10 16.0934 0 0
6:15 am 06:15 Clear 15 -9.3 13 -10.5 91 91 S 3 6 30.53 1034 10 16.0934 0 0
6:35 am 06:35 Clear 16 -9 14 -10.1 92 92 S 3 6 30.53 1034 10 16.0934 0 0
6:55 am 06:55 Clear 15 -9.5 13 -10.6 92 92 Calm 30.53 1034 10 16.0934 0 0
7:15 am 07:15 Clear 15 -9.7 12 -10.9 91 91 Calm 30.56 1035 10 16.0934 0 0
7:35 am 07:35 Clear with Mist and Fog 12 -11 10 -12.3 90 90 SE 3 6 30.56 1035 5 8.0467 0 0
7:55 am 07:55 Clear 12 -11.2 9 -12.6 90 90 SE 5 7 30.56 1035 10 16.0934 0 0
8:15 am 08:15 Sunny 13 -10.5 11 -11.7 91 91 SE 3 6 30.56 1035 10 16.0934 0 0
8:35 am 08:35 Sunny 15 -9.5 13 -10.6 92 92 Calm 30.53 1034 10 16.0934 0 0
8:55 am 08:55 Sunny 17 -8.6 15 -9.6 93 93 SSE 5 7 30.53 1034 7 11.26538 0 0
9:15 am 09:15 Sunny 19 -7.5 17 -8.5 93 93 SSE 5 7 30.53 1034 10 16.0934 0 0
9:35 am 09:35 Sunny 21 -6.2 19 -7.1 93 93 SSE 7 11 30.5 1033 10 16.0934 0 0
9:55 am 09:55 Sunny 22 -5.6 20 -6.4 94 94 S 8 13 30.5 1033 10 16.0934 0 0
10:15 am 10:15 Sunny 23 -4.9 22 -5.8 94 94 S 10 17 30.53 1034 10 16.0934 0 0
10:35 am 10:35 Sunny 24 -4.3 23 -5.2 94 94 S 10 17 30.53 1034 10 16.0934 0 0
10:55 am 10:55 undefined N/A N/A N/A undefined N/A N/A N/A 0 0
11:15 am 11:15 undefined 27 -2.9 24 -4.3 90 90 S 9 15 30.48 1032 N/A 0 0
11:35 am 11:35 Sunny 28 -2.1 25 -4.1 86 86 S 9 15 30.48 1032 10 16.0934 0.03 0.762
11:55 am 11:55 Sunny 29 -1.5 24 -4.2 82 82 S 10 17 30.45 1031 10 16.0934 0.03 0.762
12:15 pm 12:15 Sunny 29 -1.7 24 -4.7 80 80 S 10 17 30.45 1031 10 16.0934 0 0
12:35 pm 12:35 Sunny 31 -0.8 24 -4.3 77 77 S 12 19 30.45 1031 10 16.0934 0 0
12:55 pm 12:55 Sunny 32 0 25 -4 75 75 S 10 17 30.39 1029 10 16.0934 0 0
1:15 pm 13:15 Sunny 32 0.1 24 -4.3 73 73 S 13 20 30.39 1029 10 16.0934 0 0
1:35 pm 13:35 Sunny 33 0.5 24 -4.7 68 68 SSE 14 22 30.36 1028 10 16.0934 0 0
1:55 pm 13:55 Sunny 34 1.1 23 -5 64 64 SSE 13 20 30.36 1028 10 16.0934 0 0
2:15 pm 14:15 Sunny 34 1.3 23 -5.1 63 63 S 14 22 30.33 1027 10 16.0934 0 0
2:35 pm 14:35 Sunny 35 1.6 22 -5.7 59 59 S 15 24 30.3 1026 10 16.0934 0 0
2:55 pm 14:55 Sunny 35 1.9 22 -5.6 58 58 S 14 22 30.3 1026 10 16.0934 0 0
3:15 pm 15:15 Sunny 35 1.8 21 -5.9 57 57 S 14 22 30.3 1026 10 16.0934 0 0
3:35 pm 15:35 Sunny 35 1.5 21 -6 58 58 SSE 16 26 30.27 1025 10 16.0934 0 0
3:55 pm 15:55 Sunny 35 1.5 21 -6.1 57 57 SSE 15 24 30.27 1025 10 16.0934 0 0
4:15 pm 16:15 Sunny 34 1.2 21 -6 59 59 SSE 13 20 30.3 1026 10 16.0934 0 0
4:35 pm 16:35 Sunny 33 0.7 21 -6 61 61 SSE 15 24 30.3 1026 10 16.0934 0 0
4:55 pm 16:55 Sunny 32 0 21 -5.9 65 65 SSE 13 20 30.3 1026 10 16.0934 0 0
5:15 pm 17:15 Sunny 31 -0.8 21 -6.1 68 68 SSE 9 15 30.3 1026 10 16.0934 0 0
5:35 pm 17:35 Clear 29 -1.7 21 -6.1 72 72 SSE 9 15 30.33 1027 10 16.0934 0 0
5:55 pm 17:55 Clear 27 -2.6 21 -6.2 77 77 SSE 9 15 30.33 1027 10 16.0934 0 0
6:15 pm 18:15 Clear 27 -2.7 21 -6.1 78 78 SSE 12 19 30.33 1027 10 16.0934 0 0
6:35 pm 18:35 Clear 26 -3.5 20 -6.7 79 79 SSE 13 20 30.33 1027 10 16.0934 0 0
6:55 pm 18:55 Clear 24 -4.2 19 -7.4 79 79 SSE 12 19 30.33 1027 10 16.0934 0 0
7:15 pm 19:15 Clear 23 -5 18 -7.7 82 82 SSE 12 19 30.36 1028 10 16.0934 0 0
7:35 pm 19:35 Clear 23 -5.2 18 -7.8 82 82 SE 10 17 30.36 1028 10 16.0934 0 0
7:55 pm 19:55 Clear 22 -5.7 18 -7.9 85 85 SSE 9 15 30.36 1028 10 16.0934 0 0
8:15 pm 20:15 Clear 21 -6 18 -7.8 87 87 SSE 12 19 30.36 1028 7 11.26538 0 0
8:35 pm 20:35 Clear 21 -6.3 18 -8 88 88 SSE 10 17 30.36 1028 7 11.26538 0 0
8:55 pm 20:55 Clear 20 -6.6 18 -8 90 90 SSE 12 19 30.36 1028 7 11.26538 0 0
9:15 pm 21:15 Clear with Mist and Fog 20 -6.9 17 -8.1 91 91 SSE 12 19 30.36 1028 5 8.0467 0 0
9:35 pm 21:35 Clear with Mist and Fog 19 -7 18 -8 93 93 SSE 10 17 30.36 1028 5 8.0467 0 0
9:55 pm 21:55 Clear 19 -7 18 -8 93 93 SSE 10 17 30.33 1027 7 11.26538 0 0
10:15 pm 22:15 Partly Cloudy 20 -6.7 18 -7.6 93 93 SSE 12 19 30.33 1027 7 11.26538 0 0
10:35 pm 22:35 Cloudy 21 -6.2 19 -7 94 94 SSE 15 24 30.33 1027 7 11.26538 0 0
10:55 pm 22:55 Cloudy 21 -6 20 -6.7 95 95 S 17 28 30.33 1027 7 11.26538 0 0
11:15 pm 23:15 Cloudy with Mist and Fog 22 -5.6 20 -6.5 93 93 S 20 31 30.33 1027 5 8.0467 0 0
11:35 pm 23:35 Cloudy with Mist and Fog 22 -5.5 21 -6.2 95 95 S 18 30 30.27 1025 5 8.0467 0 0
11:55 pm 23:55 Cloudy with Mist and Fog 23 -5.2 21 -6 94 94 S 16 26 30.3 1026 5 8.0467 0 0

Powered by AerisWeather